TimeCST,TemperatureF,Dew PointF,Humidity,Sea Level PressureIn,VisibilityMPH,Wind Direction,Wind SpeedMPH,Gust SpeedMPH,PrecipitationIn,Events,Conditions,WindDirDegrees,DateUTC
12:02 AM,66.2,59.0,78,30.10,10.0,North,13.8,24.2,N/A,,Overcast,10,2011-11-17 06:02:00
12:33 AM,64.4,59.0,83,30.12,10.0,NNE,12.7,23.0,0.00,,Overcast,20,2011-11-17 06:33:00
12:53 AM,64.0,57.9,80,30.15,10.0,NNE,16.1,25.3,0.00,,Overcast,20,2011-11-17 06:53:00
1:21 AM,62.6,55.4,77,30.14,10.0,NNE,23.0,27.6,N/A,,Overcast,20,2011-11-17 07:21:00
1:30 AM,60.8,55.4,82,30.15,10.0,NNE,17.3,28.8,N/A,,Overcast,20,2011-11-17 07:30:00
1:53 AM,60.8,51.8,72,30.16,10.0,NNE,20.7,29.9,N/A,,Overcast,30,2011-11-17 07:53:00
2:33 AM,57.2,48.2,72,30.18,10.0,NNE,18.4,-,N/A,,Scattered Clouds,30,2011-11-17 08:33:00
2:53 AM,57.0,48.0,72,30.22,10.0,North,17.3,27.6,N/A,,Clear,10,2011-11-17 08:53:00
3:53 AM,55.0,46.0,72,30.24,10.0,NNE,17.3,23.0,N/A,,Clear,20,2011-11-17 09:53:00
4:53 AM,52.0,37.0,57,30.27,10.0,North,13.8,-,N/A,,Clear,10,2011-11-17 10:53:00
5:53 AM,51.1,34.0,52,30.30,10.0,NNE,11.5,21.9,N/A,,Clear,20,2011-11-17 11:53:00
6:53 AM,50.0,36.0,59,30.33,10.0,North,17.3,23.0,N/A,,Clear,10,2011-11-17 12:53:00
7:53 AM,51.1,34.0,52,30.36,10.0,NNE,16.1,23.0,N/A,,Clear,30,2011-11-17 13:53:00
8:53 AM,54.0,30.9,41,30.38,10.0,NNE,20.7,27.6,N/A,,Clear,30,2011-11-17 14:53:00
9:53 AM,57.9,34.0,41,30.39,10.0,North,15.0,-,N/A,,Clear,10,2011-11-17 15:53:00
10:53 AM,60.8,30.2,31,30.36,10.0,NNE,17.3,-,N/A,,Clear,20,2011-11-17 16:53:00
11:53 AM,64.0,30.0,28,30.35,10.0,NNE,17.3,23.0,N/A,,Clear,30,2011-11-17 17:53:00
12:53 PM,66.9,30.9,26,30.32,10.0,NNE,19.6,23.0,N/A,,Clear,30,2011-11-17 18:53:00
1:53 PM,66.9,30.9,26,30.30,10.0,North,16.1,20.7,N/A,,Clear,10,2011-11-17 19:53:00
2:53 PM,66.9,28.9,24,30.29,10.0,North,11.5,-,N/A,,Clear,10,2011-11-17 20:53:00
3:53 PM,66.0,28.0,24,30.29,10.0,North,10.4,-,N/A,,Clear,10,2011-11-17 21:53:00
4:53 PM,62.1,27.0,26,30.30,10.0,NNE,10.4,-,N/A,,Clear,20,2011-11-17 22:53:00
5:53 PM,57.0,30.9,37,30.32,10.0,NNE,8.1,-,N/A,,Clear,20,2011-11-17 23:53:00
6:53 PM,55.0,32.0,42,30.33,10.0,NNE,9.2,-,N/A,,Clear,30,2011-11-18 00:53:00
7:53 PM,50.0,33.1,52,30.35,10.0,NE,6.9,-,N/A,,Clear,40,2011-11-18 01:53:00
8:53 PM,48.9,33.1,54,30.35,10.0,NE,10.4,-,N/A,,Clear,50,2011-11-18 02:53:00
9:53 PM,45.0,33.1,63,30.35,10.0,NE,8.1,-,N/A,,Clear,50,2011-11-18 03:53:00
10:53 PM,43.0,32.0,65,30.35,10.0,ENE,6.9,-,N/A,,Clear,60,2011-11-18 04:53:00
11:53 PM,41.0,30.9,67,30.34,10.0,NE,5.8,-,N/A,,Clear,50,2011-11-18 05:53:00